FW9274 Weather Reports


time (UTC)temp
C
wind
direction
speed
KPH
gust
KPH
rain 1hr
cm
rain 24hr
cm
rain mn
cm
humidity
%
barometer
mb
20260504192231 14 345 17.7 22.5 0.00 0.00 0.00 43 999.3
20260504191730 14 282 16.1 22.5 0.00 0.00 0.00 43 999.3
20260504191226 15 329 14.5 20.9 0.00 0.00 0.00 44 999.6
20260504190721 15 229 8.0 11.3 0.00 0.00 0.00 43 999.3
20260504190218 15 255 17.7 24.1 0.00 0.00 0.00 41 999.3
20260504185715 15 206 8.0 12.9 0.00 0.00 0.00 43 999.3
20260504185211 15 352 6.4 9.7 0.00 0.00 0.00 43 999.3
20260504184707 15 23 14.5 22.5 0.00 0.00 0.00 42 999.0
20260504184203 15 292 4.8 8.0 0.00 0.00 0.00 44 999.3
20260504183659 15 283 8.0 11.3 0.00 0.00 0.00 44 999.0
20260504183156 15 270 9.7 27.4 0.00 0.00 0.00 43 999.0
20260504182654 15 268 8.0 12.9 0.00 0.00 0.00 43 999.0
20260504182152 15 323 11.3 16.1 0.00 0.00 0.00 43 999.0
20260504181649 15 272 8.0 9.7 0.00 0.00 0.00 43 998.6
20260504181147 14 307 8.0 14.5 0.00 0.00 0.00 42 998.6
20260504180646 13 299 8.0 14.5 0.00 0.00 0.00 43 998.6
20260504180144 14 257 4.8 11.3 0.00 0.00 0.00 42 998.6
20260504175641 14 264 16.1 22.5 0.00 0.00 0.00 40 998.3
20260504175137 14 274 4.8 8.0 0.00 0.00 0.00 40 998.6
20260504174636 14 278 8.0 9.7 0.00 0.00 0.00 41 998.6
20260504174131 14 331 8.0 12.9 0.00 0.00 0.00 42 998.6
20260504173629 15 287 14.5 20.9 0.00 0.00 0.00 41 998.3
20260504173126 15 335 9.7 14.5 0.00 0.00 0.00 39 997.8
20260504172623 15 273 8.0 12.9 0.00 0.00 0.00 41 998.3
20260504172120 15 335 12.9 17.7 0.00 0.00 0.00 39 998.3
20260504171616 15 337 17.7 22.5 0.00 0.00 0.00 41 997.8
20260504171113 15 296 14.5 20.9 0.00 0.00 0.00 43 997.8
20260504170609 15 308 9.7 14.5 0.00 0.00 0.00 44 997.8
20260504170107 15 277 17.7 20.9 0.00 0.00 0.00 41 998.3
20260504150952 14 315 14.5 16.1 0.00 0.00 0.00 47 997.5
20260504150449 14 305 9.7 12.9 0.00 0.00 0.00 48 997.2
20260504140916 14 304 4.8 8.0 0.00 0.00 0.00 47 997.2
20260504140412 13 332 6.4 8.0 0.00 0.00 0.00 47 997.2
20260504130337 15 289 8.0 14.5 0.00 0.00 0.00 53 996.5
20260504120300 13 247 3.2 3.2 0.00 0.00 0.00 50 995.8
20260504110224 13 225 12.9 16.1 0.00 0.00 0.00 49 995.1
20260504100148 12 217 6.4 9.7 0.00 0.00 0.00 49 995.1
20260504090110 12 210 3.2 3.2 0.00 0.00 0.00 52 996.1
20260504081541 12 219 8.0 8.0 0.00 0.00 0.00 50 996.8
20260504081036 12 230 9.7 11.3 0.00 0.00 0.00 49 997.2
20260504080533 12 238 6.4 8.0 0.00 0.00 0.00 50 997.2
20260504050346 13 246 0.0 0.0 0.00 0.00 0.00 45 1000.6
20260504045843 13 239 0.0 0.0 0.00 0.00 0.00 46 1000.6
20260504045338 13 227 0.0 0.0 0.00 0.00 0.00 45 1000.6
20260504044835 13 237 0.0 0.0 0.00 0.00 0.00 45 1000.6
20260504044333 13 226 0.0 0.0 0.00 0.00 0.00 45 1000.6
20260504043830 13 241 0.0 0.0 0.00 0.00 0.00 45 1000.6
20260504043326 13 235 0.0 0.0 0.00 0.00 0.00 45 1001.0
20260504042824 13 212 0.0 0.0 0.00 0.00 0.00 44 1001.0
20260504042320 13 242 0.0 0.0 0.00 0.00 0.00 45 1001.0
20260504041816 13 213 1.6 3.2 0.00 0.00 0.00 45 1001.3
20260504041313 13 233 0.0 0.0 0.00 0.00 0.00 44 1001.3
20260504040809 13 247 1.6 1.6 0.00 0.00 0.00 45 1001.3
20260504040307 13 252 0.0 0.0 0.00 0.00 0.00 44 1001.3
20260504035803 13 253 0.0 0.0 0.00 0.00 0.00 43 1001.3
20260504035300 13 226 1.6 3.2 0.00 0.00 0.00 43 1001.8
20260504034757 13 246 0.0 0.0 0.00 0.00 0.00 42 1001.8
20260504034255 13 249 0.0 0.0 0.00 0.00 0.00 42 1002.1
20260504033752 13 246 0.0 0.0 0.00 0.00 0.00 42 1002.1
20260504033249 13 243 0.0 0.0 0.00 0.00 0.00 42 1001.8
20260504032746 14 244 0.0 0.0 0.00 0.00 0.00 42 1002.1
20260504032243 14 247 0.0 0.0 0.00 0.00 0.00 42 1002.1
20260504031739 14 252 0.0 0.0 0.00 0.00 0.00 41 1002.1
20260504031238 14 247 0.0 0.0 0.00 0.00 0.00 41 1002.4
20260504030733 14 248 0.0 0.0 0.00 0.00 0.00 41 1002.4
20260504030230 14 249 0.0 0.0 0.00 0.00 0.00 42 1002.4
20260504025727 14 249 0.0 0.0 0.00 0.00 0.00 41 1002.4
20260504025224 15 249 0.0 0.0 0.00 0.00 0.00 41 1002.4
20260504024721 14 241 0.0 0.0 0.00 0.00 0.00 41 1002.4
20260504024217 14 264 0.0 0.0 0.00 0.00 0.00 42 1002.4
20260504023714 13 265 0.0 0.0 0.00 0.00 0.00 44 1002.4
20260504023210 13 265 0.0 0.0 0.00 0.00 0.00 44 1002.4
20260504022706 13 265 0.0 0.0 0.00 0.00 0.00 44 1002.4
20260504022202 14 265 0.0 0.0 0.00 0.00 0.00 45 1002.4
20260504021700 15 265 0.0 0.0 0.00 0.00 0.00 43 1002.4
20260504021156 15 265 0.0 0.0 0.00 0.00 0.00 40 1002.4
20260504020654 15 265 0.0 0.0 0.00 0.00 0.00 40 1002.8
20260504020149 15 265 0.0 0.0 0.00 0.00 0.00 41 1002.8
20260504015647 15 265 0.0 0.0 0.00 0.00 0.00 40 1002.8
20260504015143 15 265 0.0 0.0 0.00 0.00 0.00 40 1002.8
20260504014638 16 265 0.0 0.0 0.00 0.00 0.00 39 1002.8
20260504014136 16 267 0.0 0.0 0.00 0.00 0.00 38 1002.8
20260504013634 16 269 0.0 0.0 0.00 0.00 0.00 36 1002.8
20260504013130 17 280 0.0 0.0 0.00 0.00 0.00 36 1002.8
20260504012627 17 269 0.0 0.0 0.00 0.00 0.00 35 1002.8
20260504012126 17 278 0.0 0.0 0.00 0.00 0.00 35 1002.8
20260504011622 17 285 1.6 1.6 0.00 0.00 0.00 35 1002.8
20260504011118 18 271 0.0 0.0 0.00 0.00 0.00 34 1002.8
20260504010614 18 283 0.0 1.6 0.00 0.00 0.00 33 1003.1
20260504010110 18 280 0.0 0.0 0.00 0.00 0.00 33 1003.1
20260504005607 18 254 4.8 4.8 0.00 0.00 0.00 32 1003.1
20260504005104 18 278 3.2 3.2 0.00 0.00 0.00 31 1003.1
20260504004602 18 285 0.0 0.0 0.00 0.00 0.00 31 1003.1
20260504004059 18 279 3.2 3.2 0.00 0.00 0.00 30 1003.1
20260504003555 18 264 0.0 0.0 0.00 0.00 0.00 30 1002.8
20260504003052 19 268 1.6 4.8 0.00 0.00 0.00 29 1003.1
20260504002549 19 282 6.4 8.0 0.00 0.00 0.00 28 1003.1
20260504002047 19 252 8.0 9.7 0.00 0.00 0.00 27 1003.1
20260504001544 20 269 8.0 11.3 0.00 0.00 0.00 27 1003.1
20260504001040 20 251 8.0 9.7 0.00 0.00 0.00 28 1003.1
20260504000537 20 279 8.0 11.3 0.00 0.00 0.00 28 1003.5
20260504000035 20 279 0.0 0.0 0.00 0.00 0.00 28 1003.1
20260503235533 20 239 8.0 9.7 0.00 0.00 0.00 28 1003.1
20260503235029 20 350 1.6 4.8 0.00 0.00 0.00 28 1003.5
20260503234527 20 282 3.2 9.7 0.00 0.00 0.00 27 1003.1
20260503234026 20 284 9.7 11.3 0.00 0.00 0.00 27 1003.1
20260503233521 21 285 9.7 12.9 0.00 0.00 0.00 26 1003.1
20260503233017 21 295 0.0 0.0 0.00 0.00 0.00 27 1003.1
20260503232514 21 284 4.8 4.8 0.00 0.00 0.00 26 1003.5
20260503232012 21 296 0.0 0.0 0.00 0.00 0.00 26 1003.8
20260503231510 21 273 6.4 8.0 0.00 0.00 0.00 25 1003.5
20260503231006 21 281 1.6 1.6 0.00 0.00 0.00 26 1003.8
20260503230503 21 280 11.3 14.5 0.00 0.00 0.00 25 1003.5
20260503230000 21 318 4.8 8.0 0.00 0.00 0.00 26 1003.8
20260503225457 21 286 0.0 0.0 0.00 0.00 0.00 28 1003.8
20260503224952 20 331 8.0 12.9 0.00 0.00 0.00 26 1003.5
20260503224449 21 330 1.6 4.8 0.00 0.00 0.00 27 1003.8
20260503223947 21 336 0.0 0.0 0.00 0.00 0.00 27 1003.8
20260503223445 20 292 4.8 11.3 0.00 0.00 0.00 26 1003.8
20260503222940 21 283 6.4 8.0 0.00 0.00 0.00 26 1003.8
20260503222439 21 293 6.4 11.3 0.00 0.00 0.00 26 1004.1
20260503221937 21 287 4.8 9.7 0.00 0.00 0.00 26 1003.8
20260503221435 21 305 6.4 9.7 0.00 0.00 0.00 25 1003.8
20260503220931 20 299 11.3 14.5 0.00 0.00 0.00 26 1003.8
20260503220428 20 277 0.0 0.0 0.00 0.00 0.00 27 1003.8
20260503215925 20 290 6.4 9.7 0.00 0.00 0.00 26 1004.1
20260503215422 20 311 4.8 11.3 0.00 0.00 0.00 26 1004.1
20260503214919 20 333 4.8 9.7 0.00 0.00 0.00 25 1004.1
20260503214417 20 329 9.7 16.1 0.00 0.00 0.00 25 1003.8
20260503213914 20 298 11.3 17.7 0.00 0.00 0.00 25 1004.1
20260503213412 21 316 9.7 14.5 0.00 0.00 0.00 25 1003.8
20260503212908 20 291 0.0 0.0 0.00 0.00 0.00 28 1003.8
20260503212406 20 219 0.0 0.0 0.00 0.00 0.00 29 1004.1
20260503211903 21 332 8.0 9.7 0.00 0.00 0.00 27 1004.1
20260503211400 21 271 4.8 8.0 0.00 0.00 0.00 29 1004.5
20260503210855 20 286 6.4 11.3 0.00 0.00 0.00 27 1004.1
20260503210353 21 278 9.7 12.9 0.00 0.00 0.00 27 1004.1
20260503205847 21 248 6.4 11.3 0.00 0.00 0.00 28 1004.5
20260503205344 21 245 0.0 0.0 0.00 0.00 0.00 29 1004.1
20260503204840 20 314 1.6 3.2 0.00 0.00 0.00 29 1004.1
20260503204338 20 340 4.8 4.8 0.00 0.00 0.00 30 1004.5
20260503203835 21 278 1.6 3.2 0.00 0.00 0.00 30 1004.5
20260503203332 20 293 8.0 9.7 0.00 0.00 0.00 30 1004.5
20260503202829 20 341 1.6 4.8 0.00 0.00 0.00 31 1004.5
20260503202327 20 327 8.0 14.5 0.00 0.00 0.00 30 1004.5
20260503201826 20 273 3.2 8.0 0.00 0.00 0.00 29 1004.5
20260503201322 20 344 4.8 4.8 0.00 0.00 0.00 32 1004.8
20260503200820 20 292 0.0 0.0 0.00 0.00 0.00 31 1004.5
20260503200315 20 296 6.4 9.7 0.00 0.00 0.00 31 1004.8
20260503195813 20 356 0.0 0.0 0.00 0.00 0.00 31 1004.8
20260503195309 20 261 0.0 0.0 0.00 0.00 0.00 31 1004.8
20260503194807 20 277 4.8 11.3 0.00 0.00 0.00 31 1005.2
20260503194302 20 276 0.0 0.0 0.00 0.00 0.00 33 1005.2
20260503193759 20 262 0.0 0.0 0.00 0.00 0.00 34 1005.2
20260503193255 20 328 3.2 4.8 0.00 0.00 0.00 31 1005.2
20260503192751 20 280 12.9 17.7 0.00 0.00 0.00 31 1005.6